Location: Unspecified
(48.8656°N, 0.0000°E)
Time: 17:55:53
(UTC+00:00)

Vanguard 3 - Pass Details

Date: 26 June 2019
Orbit: 507 x 3264 km, 33.4° (Epoch: 14 July)

Event Time Altitude Azimuth Distance (km) Brightness Sun altitude
Rises 07:02:22 0° 186° (S) 7,190 11.9 27.0°
Reaches altitude 10° 07:12:10 10° 163° (SSE) 5,867 11.8 28.6°
Maximum altitude 07:17:47 12° 144° (SE) 5,354 11.9 29.5°
Drops below altitude 10° 07:22:50 10° 125° (SE) 5,186 12.2 30.4°
Sets 07:29:52 0° 99° (E) 5,552 12.5 31.5°
